Time,TemperatureF,DewpointF,PressureIn,WindDirection,WindDirectionDegrees,WindSpeedMPH,WindSpeedGustMPH,Humidity,HourlyPrecipIn,Conditions,Clouds,dailyrainin,SoftwareType,DateUTC
2013-11-12 00:00:00,41.8,32.4,30.05,West,265,0.0,0.0,69,0.00,,,0.00,VWS V14.01,2013-11-12 05:00:00,
2013-11-12 00:01:00,40.9,32.9,30.07,West,265,0.0,0.0,73,0.00,,,0.00,VWS V14.01,2013-11-12 05:01:00,
2013-11-12 00:06:00,41.1,32.8,30.07,West,265,0.0,0.0,72,0.00,,,0.00,VWS V14.01,2013-11-12 05:06:00,
2013-11-12 00:11:00,41.1,32.4,30.07,West,265,0.0,0.0,71,0.00,,,0.00,VWS V14.01,2013-11-12 05:11:00,
2013-11-12 00:16:00,41.2,31.8,30.07,West,265,0.0,0.0,69,0.00,,,0.00,VWS V14.01,2013-11-12 05:16:00,
2013-11-12 00:21:00,41.5,32.1,30.07,West,265,0.0,0.0,69,0.00,,,0.00,VWS V14.01,2013-11-12 05:21:00,
2013-11-12 00:26:00,41.6,32.2,30.07,West,265,0.0,0.0,69,0.00,,,0.00,VWS V14.01,2013-11-12 05:26:00,
2013-11-12 00:30:00,40.3,33.0,30.03,West,265,0.0,0.0,75,0.00,,,0.00,VWS V14.01,2013-11-12 05:30:00,
2013-11-12 00:31:00,41.8,32.0,30.06,West,265,0.0,0.0,68,0.00,,,0.00,VWS V14.01,2013-11-12 05:31:00,
2013-11-12 00:36:00,41.9,32.1,30.06,West,265,0.0,0.0,68,0.00,,,0.00,VWS V14.01,2013-11-12 05:36:00,
2013-11-12 00:41:00,42.1,32.0,30.06,West,265,0.0,0.0,67,0.00,,,0.00,VWS V14.01,2013-11-12 05:41:00,
2013-11-12 00:46:00,42.1,32.0,30.05,West,265,0.0,0.0,67,0.00,,,0.00,VWS V14.01,2013-11-12 05:46:00,
2013-11-12 00:51:00,42.1,32.3,30.05,West,265,0.0,0.0,68,0.00,,,0.00,VWS V14.01,2013-11-12 05:51:00,
2013-11-12 00:56:00,41.9,32.1,30.05,West,265,0.0,0.0,68,0.00,,,0.00,VWS V14.01,2013-11-12 05:56:00,
2013-11-12 01:00:00,38.9,32.6,30.03,West,265,0.0,0.0,78,0.00,,,0.00,VWS V14.01,2013-11-12 06:00:00,
2013-11-12 01:01:00,41.8,32.4,30.05,West,265,0.0,0.0,69,0.00,,,0.00,VWS V14.01,2013-11-12 06:01:00,
2013-11-12 01:06:00,41.6,33.3,30.05,West,265,0.0,0.0,72,0.00,,,0.00,VWS V14.01,2013-11-12 06:06:00,
2013-11-12 01:11:00,41.5,33.5,30.05,West,265,0.0,0.0,73,0.00,,,0.00,VWS V14.01,2013-11-12 06:11:00,
2013-11-12 01:16:00,41.2,33.5,30.04,West,265,0.0,0.0,74,0.00,,,0.00,VWS V14.01,2013-11-12 06:16:00,
2013-11-12 01:21:00,40.9,33.6,30.04,West,265,0.0,0.0,75,0.00,,,0.00,VWS V14.01,2013-11-12 06:21:00,
2013-11-12 01:26:00,40.6,33.3,30.04,West,265,0.0,0.0,75,0.00,,,0.00,VWS V14.01,2013-11-12 06:26:00,
2013-11-12 01:30:00,38.2,32.9,30.02,West,265,0.0,0.0,81,0.00,,,0.00,VWS V14.01,2013-11-12 06:30:00,
2013-11-12 01:31:00,40.3,33.0,30.03,West,265,0.0,0.0,75,0.00,,,0.00,VWS V14.01,2013-11-12 06:31:00,
2013-11-12 01:36:00,40.1,33.2,30.03,West,265,0.0,0.0,76,0.00,,,0.00,VWS V14.01,2013-11-12 06:36:00,
2013-11-12 01:41:00,39.8,32.9,30.03,West,265,0.0,0.0,76,0.00,,,0.00,VWS V14.01,2013-11-12 06:41:00,
2013-11-12 01:46:00,39.5,32.6,30.03,West,265,0.0,0.0,76,0.00,,,0.00,VWS V14.01,2013-11-12 06:46:00,
2013-11-12 01:51:00,39.3,32.7,30.03,West,265,0.0,0.0,77,0.00,,,0.00,VWS V14.01,2013-11-12 06:51:00,
2013-11-12 01:56:00,39.1,32.8,30.03,West,265,0.0,0.0,78,0.00,,,0.00,VWS V14.01,2013-11-12 06:56:00,
2013-11-12 02:00:00,37.9,32.6,30.01,West,265,0.0,0.0,81,0.00,,,0.00,VWS V14.01,2013-11-12 07:00:00,
2013-11-12 02:01:00,38.9,32.6,30.03,West,265,0.0,0.0,78,0.00,,,0.00,VWS V14.01,2013-11-12 07:01:00,
2013-11-12 02:06:00,38.8,32.5,30.03,West,265,0.0,0.0,78,0.00,,,0.00,VWS V14.01,2013-11-12 07:06:00,
2013-11-12 02:11:00,38.6,32.7,30.03,West,265,0.0,0.0,79,0.00,,,0.00,VWS V14.01,2013-11-12 07:11:00,
2013-11-12 02:16:00,38.5,32.6,30.02,West,265,0.0,0.0,79,0.00,,,0.00,VWS V14.01,2013-11-12 07:16:00,
2013-11-12 02:21:00,38.3,32.4,30.02,West,265,0.0,0.0,79,0.00,,,0.00,VWS V14.01,2013-11-12 07:21:00,
2013-11-12 02:26:00,38.3,32.7,30.02,West,265,0.0,0.0,80,0.00,,,0.00,VWS V14.01,2013-11-12 07:26:00,
2013-11-12 02:30:00,37.8,32.8,30.01,West,265,0.0,0.0,82,0.00,,,0.00,VWS V14.01,2013-11-12 07:30:00,
2013-11-12 02:31:00,38.2,32.9,30.02,West,265,0.0,0.0,81,0.00,,,0.00,VWS V14.01,2013-11-12 07:31:00,
2013-11-12 02:36:00,38.2,32.9,30.02,West,265,0.0,0.0,81,0.00,,,0.00,VWS V14.01,2013-11-12 07:36:00,
2013-11-12 02:41:00,38.0,32.7,30.02,West,265,0.0,0.0,81,0.00,,,0.00,VWS V14.01,2013-11-12 07:41:00,
2013-11-12 02:46:00,38.0,32.7,30.02,West,265,0.0,0.0,81,0.00,,,0.00,VWS V14.01,2013-11-12 07:46:00,
2013-11-12 02:51:00,37.9,32.6,30.02,West,265,0.0,0.0,81,0.00,,,0.00,VWS V14.01,2013-11-12 07:51:00,
2013-11-12 02:56:00,37.9,32.6,30.02,West,265,0.0,0.0,81,0.00,,,0.00,VWS V14.01,2013-11-12 07:56:00,
2013-11-12 03:00:00,37.2,32.5,30.00,West,265,0.0,0.0,83,0.00,,,0.00,VWS V14.01,2013-11-12 08:00:00,
2013-11-12 03:01:00,37.9,32.6,30.01,West,265,0.0,0.0,81,0.00,,,0.00,VWS V14.01,2013-11-12 08:01:00,
2013-11-12 03:06:00,37.9,32.6,30.01,West,265,0.0,0.0,81,0.00,,,0.00,VWS V14.01,2013-11-12 08:06:00,
2013-11-12 03:11:00,38.0,33.0,30.01,West,265,0.0,0.0,82,0.00,,,0.00,VWS V14.01,2013-11-12 08:11:00,
2013-11-12 03:16:00,37.9,32.9,30.01,West,265,0.0,0.0,82,0.00,,,0.00,VWS V14.01,2013-11-12 08:16:00,
2013-11-12 03:21:00,37.9,33.2,30.01,West,265,0.0,0.0,83,0.00,,,0.00,VWS V14.01,2013-11-12 08:21:00,
2013-11-12 03:26:00,37.9,33.2,30.01,West,265,0.0,0.0,83,0.00,,,0.00,VWS V14.01,2013-11-12 08:26:00,
2013-11-12 03:30:00,37.3,32.6,30.00,West,265,0.0,0.0,83,0.00,,,0.00,VWS V14.01,2013-11-12 08:30:00,
2013-11-12 03:31:00,37.8,32.8,30.01,West,265,0.0,0.0,82,0.00,,,0.00,VWS V14.01,2013-11-12 08:31:00,
2013-11-12 03:36:00,37.8,32.8,30.01,West,265,0.0,0.0,82,0.00,,,0.00,VWS V14.01,2013-11-12 08:36:00,
2013-11-12 03:41:00,37.6,32.6,30.01,West,265,0.0,0.0,82,0.00,,,0.00,VWS V14.01,2013-11-12 08:41:00,
2013-11-12 03:46:00,37.5,32.5,30.00,West,265,0.0,0.0,82,0.00,,,0.00,VWS V14.01,2013-11-12 08:46:00,
2013-11-12 03:51:00,37.3,32.6,30.00,West,265,0.0,0.0,83,0.00,,,0.00,VWS V14.01,2013-11-12 08:51:00,
2013-11-12 03:56:00,37.2,32.5,30.00,West,265,0.0,0.0,83,0.00,,,0.00,VWS V14.01,2013-11-12 08:56:00,
2013-11-12 04:00:00,38.9,32.6,29.99,West,265,0.0,0.0,78,0.00,,,0.00,VWS V14.01,2013-11-12 09:00:00,
2013-11-12 04:01:00,37.2,32.5,30.00,West,265,0.0,0.0,83,0.00,,,0.00,VWS V14.01,2013-11-12 09:01:00,
2013-11-12 04:06:00,37.0,32.3,30.00,West,265,0.0,0.0,83,0.00,,,0.00,VWS V14.01,2013-11-12 09:06:00,
2013-11-12 04:11:00,37.0,32.3,30.00,West,265,0.0,0.0,83,0.00,,,0.00,VWS V14.01,2013-11-12 09:11:00,
2013-11-12 04:16:00,37.0,32.3,30.00,West,265,0.0,0.0,83,0.00,,,0.00,VWS V14.01,2013-11-12 09:16:00,
2013-11-12 04:21:00,37.0,32.3,30.00,West,265,0.0,0.0,83,0.00,,,0.00,VWS V14.01,2013-11-12 09:21:00,
2013-11-12 04:26:00,37.2,32.5,30.00,West,265,0.0,0.0,83,0.00,,,0.00,VWS V14.01,2013-11-12 09:26:00,
2013-11-12 04:30:00,40.1,32.8,29.99,West,265,0.0,0.0,75,0.00,,,0.00,VWS V14.01,2013-11-12 09:30:00,
2013-11-12 04:31:00,37.3,32.6,30.00,West,265,0.0,0.0,83,0.00,,,0.00,VWS V14.01,2013-11-12 09:31:00,
2013-11-12 04:36:00,37.5,32.5,30.00,West,265,0.0,0.0,82,0.00,,,0.00,VWS V14.01,2013-11-12 09:36:00,
2013-11-12 04:41:00,37.8,32.8,30.00,West,265,0.0,0.0,82,0.00,,,0.00,VWS V14.01,2013-11-12 09:41:00,
2013-11-12 04:46:00,38.0,32.7,29.99,West,265,0.0,0.0,81,0.00,,,0.00,VWS V14.01,2013-11-12 09:46:00,
2013-11-12 04:51:00,38.3,32.7,29.99,West,265,0.0,0.0,80,0.00,,,0.00,VWS V14.01,2013-11-12 09:51:00,
2013-11-12 04:56:00,38.6,32.7,29.99,West,265,0.0,0.0,79,0.00,,,0.00,VWS V14.01,2013-11-12 09:56:00,
2013-11-12 05:00:00,39.5,32.9,29.99,West,265,0.0,0.0,77,0.00,,,0.00,VWS V14.01,2013-11-12 10:00:00,
2013-11-12 05:01:00,39.1,32.8,29.99,West,265,0.0,0.0,78,0.00,,,0.00,VWS V14.01,2013-11-12 10:01:00,
2013-11-12 05:06:00,39.3,32.7,29.99,West,265,0.0,0.0,77,0.00,,,0.00,VWS V14.01,2013-11-12 10:06:00,
2013-11-12 05:11:00,39.6,32.7,29.99,West,265,0.0,0.0,76,0.00,,,0.00,VWS V14.01,2013-11-12 10:11:00,
2013-11-12 05:16:00,39.8,32.9,29.99,West,265,0.0,0.0,76,0.00,,,0.00,VWS V14.01,2013-11-12 10:16:00,
2013-11-12 05:21:00,39.9,32.6,29.99,West,265,0.0,0.0,75,0.00,,,0.00,VWS V14.01,2013-11-12 10:21:00,
2013-11-12 05:26:00,40.1,32.8,29.99,West,265,0.0,0.0,75,0.00,,,0.00,VWS V14.01,2013-11-12 10:26:00,
2013-11-12 05:30:00,38.5,32.6,29.99,West,265,0.0,0.0,79,0.00,,,0.00,VWS V14.01,2013-11-12 10:30:00,
2013-11-12 05:31:00,40.1,32.8,29.99,West,265,0.0,0.0,75,0.00,,,0.00,VWS V14.01,2013-11-12 10:31:00,
2013-11-12 05:36:00,40.1,32.5,29.99,West,265,0.0,0.0,74,0.00,,,0.00,VWS V14.01,2013-11-12 10:36:00,
2013-11-12 05:41:00,40.1,32.8,29.99,West,265,0.0,0.0,75,0.00,,,0.00,VWS V14.01,2013-11-12 10:41:00,
2013-11-12 05:46:00,39.9,32.6,29.99,West,265,0.0,0.0,75,0.00,,,0.00,VWS V14.01,2013-11-12 10:46:00,
2013-11-12 05:51:00,39.8,32.5,29.99,West,265,0.0,0.0,75,0.00,,,0.00,VWS V14.01,2013-11-12 10:51:00,
2013-11-12 05:56:00,39.6,32.7,29.99,West,265,0.0,0.0,76,0.00,,,0.00,VWS V14.01,2013-11-12 10:56:00,
2013-11-12 06:00:00,38.3,33.0,29.99,West,265,0.0,0.0,81,0.00,,,0.00,VWS V14.01,2013-11-12 11:00:00,
2013-11-12 06:01:00,39.5,32.9,29.99,West,265,0.0,0.0,77,0.00,,,0.00,VWS V14.01,2013-11-12 11:01:00,
2013-11-12 06:06:00,39.3,32.7,29.99,West,265,0.0,0.0,77,0.00,,,0.00,VWS V14.01,2013-11-12 11:06:00,
2013-11-12 06:11:00,39.2,32.9,29.99,West,265,0.0,0.0,78,0.00,,,0.00,VWS V14.01,2013-11-12 11:11:00,
2013-11-12 06:16:00,38.9,32.6,29.99,West,265,0.0,0.0,78,0.00,,,0.00,VWS V14.01,2013-11-12 11:16:00,
2013-11-12 06:21:00,38.8,32.5,29.99,West,265,0.0,0.0,78,0.00,,,0.00,VWS V14.01,2013-11-12 11:21:00,
2013-11-12 06:26:00,38.6,32.7,29.99,West,265,0.0,0.0,79,0.00,,,0.00,VWS V14.01,2013-11-12 11:26:00,
2013-11-12 06:30:00,43.1,34.0,30.00,West,265,0.0,0.0,70,0.00,,,0.00,VWS V14.01,2013-11-12 11:30:00,
2013-11-12 06:31:00,38.5,32.9,29.99,West,265,0.0,0.0,80,0.00,,,0.00,VWS V14.01,2013-11-12 11:31:00,
2013-11-12 06:36:00,38.3,32.7,29.99,West,265,0.0,0.0,80,0.00,,,0.00,VWS V14.01,2013-11-12 11:36:00,
2013-11-12 06:41:00,38.3,33.0,29.99,West,265,0.0,0.0,81,0.00,,,0.00,VWS V14.01,2013-11-12 11:41:00,
2013-11-12 06:46:00,38.3,33.0,29.99,West,265,0.0,0.0,81,0.00,,,0.00,VWS V14.01,2013-11-12 11:46:00,
2013-11-12 06:51:00,38.3,33.0,29.99,West,265,0.0,0.0,81,0.00,,,0.00,VWS V14.01,2013-11-12 11:51:00,
2013-11-12 06:56:00,38.3,33.0,29.99,West,265,0.0,0.0,81,0.00,,,0.00,VWS V14.01,2013-11-12 11:56:00,
2013-11-12 07:00:00,47.0,34.7,30.01,NNE,12,0.0,0.0,62,0.00,,,0.00,VWS V14.01,2013-11-12 12:00:00,
2013-11-12 07:01:00,38.3,33.0,29.99,West,265,0.0,0.0,81,0.00,,,0.00,VWS V14.01,2013-11-12 12:01:00,
2013-11-12 07:06:00,38.3,33.0,29.99,West,265,0.0,0.0,81,0.00,,,0.00,VWS V14.01,2013-11-12 12:06:00,
2013-11-12 07:11:00,38.3,33.3,29.99,West,265,0.0,0.0,82,0.00,,,0.00,VWS V14.01,2013-11-12 12:11:00,
2013-11-12 07:16:00,38.5,33.5,30.00,West,265,0.0,0.0,82,0.00,,,0.00,VWS V14.01,2013-11-12 12:16:00,
2013-11-12 07:21:00,38.6,33.6,30.00,West,265,0.0,0.0,82,0.00,,,0.00,VWS V14.01,2013-11-12 12:21:00,
2013-11-12 07:26:00,41.5,34.2,30.00,West,265,0.0,0.0,75,0.00,,,0.00,VWS V14.01,2013-11-12 12:26:00,
2013-11-12 07:30:00,49.5,35.8,30.01,North,355,0.0,0.0,59,0.00,,,0.00,VWS V14.01,2013-11-12 12:30:00,
2013-11-12 07:31:00,43.2,34.1,30.00,West,265,0.0,0.0,70,0.00,,,0.00,VWS V14.01,2013-11-12 12:31:00,
2013-11-12 07:36:00,44.1,34.2,30.00,West,265,0.0,0.0,68,0.00,,,0.00,VWS V14.01,2013-11-12 12:36:00,
2013-11-12 07:41:00,45.1,34.4,30.00,West,265,0.0,0.0,66,0.00,,,0.00,VWS V14.01,2013-11-12 12:41:00,
2013-11-12 07:46:00,45.5,34.4,30.00,West,265,0.0,0.0,65,0.00,,,0.00,VWS V14.01,2013-11-12 12:46:00,
2013-11-12 07:51:00,46.2,34.3,30.00,West,269,0.0,0.0,63,0.00,,,0.00,VWS V14.01,2013-11-12 12:51:00,
2013-11-12 07:56:00,46.5,34.6,30.00,North,11,0.0,0.0,63,0.00,,,0.00,VWS V14.01,2013-11-12 12:56:00,
2013-11-12 08:00:00,52.0,35.9,30.01,ENE,67,0.0,0.0,54,0.00,,,0.00,VWS V14.01,2013-11-12 13:00:00,
2013-11-12 08:01:00,47.0,34.7,30.01,NNE,12,0.0,0.0,62,0.00,,,0.00,VWS V14.01,2013-11-12 13:01:00,
2013-11-12 08:06:00,47.0,34.7,30.01,NNE,12,0.0,0.0,62,0.00,,,0.00,VWS V14.01,2013-11-12 13:06:00,
2013-11-12 08:11:00,47.1,34.8,30.01,North,11,0.0,0.0,62,0.00,,,0.00,VWS V14.01,2013-11-12 13:11:00,
2013-11-12 08:16:00,47.9,35.1,30.01,North,11,0.0,0.0,61,0.00,,,0.00,VWS V14.01,2013-11-12 13:16:00,
2013-11-12 08:21:00,48.9,35.6,30.01,North,355,0.0,0.0,60,0.00,,,0.00,VWS V14.01,2013-11-12 13:21:00,
2013-11-12 08:26:00,49.4,36.1,30.01,North,355,0.0,0.0,60,0.00,,,0.00,VWS V14.01,2013-11-12 13:26:00,
2013-11-12 08:30:00,53.9,36.2,30.02,ENE,63,0.0,0.0,51,0.00,,,0.00,VWS V14.01,2013-11-12 13:30:00,
2013-11-12 08:31:00,49.5,35.8,30.01,North,355,0.0,0.0,59,0.00,,,0.00,VWS V14.01,2013-11-12 13:31:00,
2013-11-12 08:36:00,49.6,35.9,30.01,North,355,0.0,0.0,59,0.00,,,0.00,VWS V14.01,2013-11-12 13:36:00,
2013-11-12 08:41:00,50.2,36.0,30.01,North,355,0.0,0.0,58,0.00,,,0.00,VWS V14.01,2013-11-12 13:41:00,
2013-11-12 08:46:00,50.8,35.2,30.01,North,355,0.0,0.0,55,0.00,,,0.00,VWS V14.01,2013-11-12 13:46:00,
2013-11-12 08:51:00,51.3,35.7,30.01,North,355,0.0,0.0,55,0.00,,,0.00,VWS V14.01,2013-11-12 13:51:00,
2013-11-12 08:56:00,51.7,36.1,30.01,North,355,0.0,0.0,55,0.00,,,0.00,VWS V14.01,2013-11-12 13:56:00,
2013-11-12 09:00:00,55.1,35.8,30.02,ENE,63,0.0,0.0,48,0.00,,,0.00,VWS V14.01,2013-11-12 14:00:00,
2013-11-12 09:01:00,52.0,35.9,30.01,ENE,65,0.0,0.0,54,0.00,,,0.00,VWS V14.01,2013-11-12 14:01:00,
2013-11-12 09:06:00,52.3,35.7,30.01,ENE,65,0.0,0.0,53,0.00,,,0.00,VWS V14.01,2013-11-12 14:06:00,
2013-11-12 09:11:00,52.6,35.5,30.01,ENE,65,0.0,0.0,52,0.00,,,0.00,VWS V14.01,2013-11-12 14:11:00,
2013-11-12 09:16:00,52.9,35.8,30.02,ENE,63,0.0,0.0,52,0.00,,,0.00,VWS V14.01,2013-11-12 14:16:00,
2013-11-12 09:21:00,53.3,36.6,30.02,ENE,63,0.0,0.0,53,0.00,,,0.00,VWS V14.01,2013-11-12 14:21:00,
2013-11-12 09:26:00,53.6,35.9,30.02,ENE,65,0.0,0.0,51,0.00,,,0.00,VWS V14.01,2013-11-12 14:26:00,
2013-11-12 09:30:00,57.5,34.6,30.02,ENE,61,0.0,0.0,42,0.00,,,0.00,VWS V14.01,2013-11-12 14:30:00,
2013-11-12 09:31:00,53.9,36.2,30.02,ENE,63,0.0,0.0,51,0.00,,,0.00,VWS V14.01,2013-11-12 14:31:00,
2013-11-12 09:36:00,54.2,35.5,30.02,ENE,63,0.0,0.0,49,0.00,,,0.00,VWS V14.01,2013-11-12 14:36:00,
2013-11-12 09:41:00,54.4,35.1,30.02,ENE,63,0.0,0.0,48,0.00,,,0.00,VWS V14.01,2013-11-12 14:41:00,
2013-11-12 09:46:00,54.5,35.2,30.02,ENE,63,0.0,0.0,48,0.00,,,0.00,VWS V14.01,2013-11-12 14:46:00,
2013-11-12 09:51:00,54.8,35.5,30.02,ENE,63,0.0,0.0,48,0.00,,,0.00,VWS V14.01,2013-11-12 14:51:00,
2013-11-12 09:56:00,55.0,35.7,30.02,ENE,63,0.0,0.0,48,0.00,,,0.00,VWS V14.01,2013-11-12 14:56:00,
2013-11-12 10:00:00,59.0,33.5,30.02,East,98,0.0,0.0,38,0.00,,,0.00,VWS V14.01,2013-11-12 15:00:00,
2013-11-12 10:01:00,55.1,35.8,30.02,ENE,63,0.0,0.0,48,0.00,,,0.00,VWS V14.01,2013-11-12 15:01:00,
2013-11-12 10:06:00,55.4,36.6,30.02,NE,46,0.0,0.0,49,0.00,,,0.00,VWS V14.01,2013-11-12 15:06:00,
2013-11-12 10:11:00,55.9,36.5,30.02,NE,46,0.0,0.0,48,0.00,,,0.00,VWS V14.01,2013-11-12 15:11:00,
2013-11-12 10:16:00,56.2,36.3,30.02,NE,47,0.0,0.0,47,0.00,,,0.00,VWS V14.01,2013-11-12 15:16:00,
2013-11-12 10:21:00,56.5,35.4,30.02,NE,48,0.0,0.0,45,0.00,,,0.00,VWS V14.01,2013-11-12 15:21:00,
2013-11-12 10:26:00,57.0,35.9,30.02,NE,48,0.0,0.0,45,0.00,,,0.00,VWS V14.01,2013-11-12 15:26:00,
2013-11-12 10:30:00,58.6,35.0,30.02,ENE,57,0.0,0.0,41,0.00,,,0.00,VWS V14.01,2013-11-12 15:30:00,
2013-11-12 10:31:00,57.5,34.6,30.02,ENE,62,0.0,0.0,42,0.00,,,0.00,VWS V14.01,2013-11-12 15:31:00,
2013-11-12 10:36:00,58.1,35.2,30.02,ENE,62,0.0,0.0,42,0.00,,,0.00,VWS V14.01,2013-11-12 15:36:00,
2013-11-12 10:41:00,58.6,34.4,30.02,ENE,65,0.0,0.0,40,0.00,,,0.00,VWS V14.01,2013-11-12 15:41:00,
2013-11-12 10:46:00,58.4,34.2,30.02,East,93,0.0,0.0,40,0.00,,,0.00,VWS V14.01,2013-11-12 15:46:00,
2013-11-12 10:51:00,58.7,33.8,30.02,ENE,58,0.0,0.0,39,0.00,,,0.00,VWS V14.01,2013-11-12 15:51:00,
2013-11-12 10:56:00,59.3,34.4,30.02,ENE,67,0.0,0.0,39,0.00,,,0.00,VWS V14.01,2013-11-12 15:56:00,
2013-11-12 11:01:00,59.0,33.5,30.02,East,98,0.0,0.0,38,0.00,,,0.00,VWS V14.01,2013-11-12 16:01:00,
2013-11-12 11:06:00,58.9,34.0,30.02,East,97,0.0,0.0,39,0.00,,,0.00,VWS V14.01,2013-11-12 16:06:00,
2013-11-12 11:11:00,58.6,34.4,30.02,East,80,0.0,0.0,40,0.00,,,0.00,VWS V14.01,2013-11-12 16:11:00,
2013-11-12 11:16:00,58.3,35.3,30.02,ENE,78,0.0,0.0,42,0.00,,,0.00,VWS V14.01,2013-11-12 16:16:00,
2013-11-12 11:21:00,58.1,34.5,30.02,East,81,0.0,0.0,41,0.00,,,0.00,VWS V14.01,2013-11-12 16:21:00,
2013-11-12 11:26:00,58.4,36.0,30.02,East,82,0.0,0.0,43,0.00,,,0.00,VWS V14.01,2013-11-12 16:26:00,
2013-11-12 11:30:00,61.8,31.6,30.01,ENE,77,0.0,0.0,32,0.00,,,0.00,VWS V14.01,2013-11-12 16:30:00,
2013-11-12 11:31:00,58.6,35.0,30.02,ENE,57,0.0,0.0,41,0.00,,,0.00,VWS V14.01,2013-11-12 16:31:00,
2013-11-12 11:36:00,58.7,35.1,30.02,ESE,102,0.0,0.0,41,0.00,,,0.00,VWS V14.01,2013-11-12 16:36:00,
2013-11-12 11:41:00,58.9,35.3,30.02,ENE,76,0.0,0.0,41,0.00,,,0.00,VWS V14.01,2013-11-12 16:41:00,
2013-11-12 11:46:00,59.0,35.3,30.02,East,82,0.0,0.0,41,0.00,,,0.00,VWS V14.01,2013-11-12 16:46:00,
2013-11-12 11:51:00,59.5,35.8,30.02,East,87,0.0,0.0,41,0.00,,,0.00,VWS V14.01,2013-11-12 16:51:00,
2013-11-12 11:56:00,59.9,35.5,30.02,East,88,0.0,0.0,40,0.00,,,0.00,VWS V14.01,2013-11-12 16:56:00,
2013-11-12 12:00:00,59.6,32.6,30.01,SE,141,0.0,0.0,36,0.00,,,0.00,VWS V14.01,2013-11-12 17:00:00,
2013-11-12 12:01:00,60.2,34.5,30.01,East,92,0.0,0.0,38,0.00,,,0.00,VWS V14.01,2013-11-12 17:01:00,
2013-11-12 12:06:00,60.4,33.3,30.01,SSE,151,0.0,0.0,36,0.00,,,0.00,VWS V14.01,2013-11-12 17:06:00,
2013-11-12 12:11:00,60.9,35.1,30.01,ENE,57,0.0,0.0,38,0.00,,,0.00,VWS V14.01,2013-11-12 17:11:00,
2013-11-12 12:16:00,61.3,34.1,30.01,ESE,113,0.0,0.0,36,0.00,,,0.00,VWS V14.01,2013-11-12 17:16:00,
2013-11-12 12:21:00,62.0,31.8,30.01,East,92,0.0,0.0,32,0.00,,,0.00,VWS V14.01,2013-11-12 17:21:00,
2013-11-12 12:26:00,61.8,32.4,30.01,ESE,120,0.0,0.0,33,0.00,,,0.00,VWS V14.01,2013-11-12 17:26:00,
2013-11-12 12:31:00,61.8,31.6,30.01,ENE,77,0.0,0.0,32,0.00,,,0.00,VWS V14.01,2013-11-12 17:31:00,
2013-11-12 12:36:00,62.0,31.8,30.01,NE,47,0.0,0.0,32,0.00,,,0.00,VWS V14.01,2013-11-12 17:36:00,
2013-11-12 12:41:00,61.6,30.7,30.01,East,90,0.0,0.0,31,0.00,,,0.00,VWS V14.01,2013-11-12 17:41:00,
2013-11-12 12:46:00,61.5,32.9,30.01,SE,137,0.0,0.0,34,0.00,,,0.00,VWS V14.01,2013-11-12 17:46:00,
2013-11-12 12:51:00,61.0,33.2,30.01,ESE,113,0.0,0.0,35,0.00,,,0.00,VWS V14.01,2013-11-12 17:51:00,
2013-11-12 12:56:00,60.4,32.7,30.01,SSE,158,0.0,0.0,35,0.00,,,0.00,VWS V14.01,2013-11-12 17:56:00,
2013-11-12 13:00:00,55.4,36.1,30.05,ESE,106,0.0,0.0,48,0.00,,,0.00,VWS V14.01,2013-11-12 18:00:00,
2013-11-12 13:01:00,59.6,32.6,30.01,SE,141,0.0,0.0,36,0.00,,,0.00,VWS V14.01,2013-11-12 18:01:00,
2013-11-12 13:06:00,59.0,32.8,30.01,East,92,0.0,0.0,37,0.00,,,0.00,VWS V14.01,2013-11-12 18:06:00,
2013-11-12 13:11:00,58.9,33.4,30.01,South,183,0.0,0.0,38,0.00,,,0.00,VWS V14.01,2013-11-12 18:11:00,
2013-11-12 13:16:00,58.7,33.2,30.02,SSE,167,0.0,0.0,38,0.00,,,0.00,VWS V14.01,2013-11-12 18:16:00,
2013-11-12 13:21:00,58.6,33.1,30.02,SE,143,0.0,0.0,38,0.00,,,0.00,VWS V14.01,2013-11-12 18:21:00,
2013-11-12 13:26:00,58.1,33.3,30.02,SSE,159,0.0,0.0,39,0.00,,,0.00,VWS V14.01,2013-11-12 18:26:00,
2013-11-12 13:30:00,53.5,35.8,30.07,South,187,0.0,0.0,51,0.00,,,0.00,VWS V14.01,2013-11-12 18:30:00,
2013-11-12 13:31:00,57.8,34.3,30.04,SSE,166,0.0,0.0,41,0.00,,,0.00,VWS V14.01,2013-11-12 18:31:00,
2013-11-12 13:36:00,57.5,34.6,30.04,SE,146,0.0,0.0,42,0.00,,,0.00,VWS V14.01,2013-11-12 18:36:00,
2013-11-12 13:41:00,56.9,34.7,30.04,SSE,165,0.0,0.0,43,0.00,,,0.00,VWS V14.01,2013-11-12 18:41:00,
2013-11-12 13:46:00,56.6,35.5,30.04,ESE,111,0.0,0.0,45,0.00,,,0.00,VWS V14.01,2013-11-12 18:46:00,
2013-11-12 13:51:00,56.3,35.2,30.04,SE,135,0.0,0.0,45,0.00,,,0.00,VWS V14.01,2013-11-12 18:51:00,
2013-11-12 13:56:00,55.9,36.0,30.04,South,185,0.0,0.0,47,0.00,,,0.00,VWS V14.01,2013-11-12 18:56:00,
2013-11-12 14:01:00,55.4,36.1,30.05,ESE,106,0.0,0.0,48,0.00,,,0.00,VWS V14.01,2013-11-12 19:01:00,
2013-11-12 14:06:00,55.1,36.3,30.05,SE,141,0.0,0.0,49,0.00,,,0.00,VWS V14.01,2013-11-12 19:06:00,
2013-11-12 14:11:00,54.8,36.5,30.05,SE,129,0.0,0.0,50,0.00,,,0.00,VWS V14.01,2013-11-12 19:11:00,
2013-11-12 14:16:00,54.4,36.7,30.06,SSE,148,0.0,0.0,51,0.00,,,0.00,VWS V14.01,2013-11-12 19:16:00,
2013-11-12 14:21:00,54.1,36.4,30.06,SSE,152,0.0,0.0,51,0.00,,,0.00,VWS V14.01,2013-11-12 19:21:00,
2013-11-12 14:26:00,53.9,36.2,30.06,ESE,115,0.0,0.0,51,0.00,,,0.00,VWS V14.01,2013-11-12 19:26:00,
2013-11-12 14:30:00,48.9,29.6,30.12,SE,138,1.0,17.0,47,0.00,,,0.00,VWS V14.01,2013-11-12 19:30:00,
2013-11-12 14:31:00,53.5,35.8,30.07,South,187,0.0,0.0,51,0.00,,,0.00,VWS V14.01,2013-11-12 19:31:00,
2013-11-12 14:36:00,53.3,36.1,30.07,SSE,151,0.0,0.0,52,0.00,,,0.00,VWS V14.01,2013-11-12 19:36:00,
2013-11-12 14:41:00,53.2,35.6,30.07,SSE,163,0.0,0.0,51,0.00,,,0.00,VWS V14.01,2013-11-12 19:41:00,
2013-11-12 14:46:00,53.1,35.5,30.07,South,179,0.0,0.0,51,0.00,,,0.00,VWS V14.01,2013-11-12 19:46:00,
2013-11-12 14:51:00,52.8,35.2,30.07,SE,128,0.0,0.0,51,0.00,,,0.00,VWS V14.01,2013-11-12 19:51:00,
2013-11-12 14:56:00,52.6,35.0,30.07,South,171,0.0,0.0,51,0.00,,,0.00,VWS V14.01,2013-11-12 19:56:00,
2013-11-12 15:00:00,44.8,29.6,30.15,SSE,148,3.0,15.0,55,0.00,,,0.00,VWS V14.01,2013-11-12 20:00:00,
2013-11-12 15:01:00,52.2,33.6,30.08,SE,126,0.0,0.0,49,0.00,,,0.00,VWS V14.01,2013-11-12 20:01:00,
2013-11-12 15:06:00,51.6,32.6,30.08,South,175,0.0,0.0,48,0.00,,,0.00,VWS V14.01,2013-11-12 20:06:00,
2013-11-12 15:11:00,51.1,32.6,30.08,ENE,65,0.0,5.0,49,0.00,,,0.00,VWS V14.01,2013-11-12 20:11:00,
2013-11-12 15:16:00,50.8,32.3,30.10,ESE,119,1.0,5.0,49,0.00,,,0.00,VWS V14.01,2013-11-12 20:16:00,
2013-11-12 15:21:00,50.4,31.5,30.10,East,98,1.0,5.0,48,0.00,,,0.00,VWS V14.01,2013-11-12 20:21:00,
2013-11-12 15:26:00,49.8,30.4,30.10,SE,138,5.0,15.0,47,0.00,,,0.00,VWS V14.01,2013-11-12 20:26:00,
2013-11-12 15:30:00,41.6,29.6,30.17,SSE,159,0.0,12.0,62,0.00,,,0.00,VWS V14.01,2013-11-12 20:30:00,
2013-11-12 15:31:00,49.1,29.8,30.12,SE,141,3.0,17.0,47,0.00,,,0.00,VWS V14.01,2013-11-12 20:31:00,
2013-11-12 15:36:00,48.5,28.7,30.12,South,186,2.0,9.0,46,0.00,,,0.00,VWS V14.01,2013-11-12 20:36:00,
2013-11-12 15:41:00,47.6,28.4,30.12,East,96,6.0,12.0,47,0.00,,,0.00,VWS V14.01,2013-11-12 20:41:00,
2013-11-12 15:46:00,46.8,28.2,30.13,ESE,103,1.0,12.0,48,0.00,,,0.00,VWS V14.01,2013-11-12 20:46:00,
2013-11-12 15:51:00,46.1,29.0,30.13,ESE,123,0.0,12.0,51,0.00,,,0.00,VWS V14.01,2013-11-12 20:51:00,
2013-11-12 15:56:00,45.4,29.7,30.13,SSE,150,4.0,15.0,54,0.00,,,0.00,VWS V14.01,2013-11-12 20:56:00,
2013-11-12 16:00:00,39.5,30.2,30.20,ESE,120,0.0,0.0,69,0.00,,,0.00,VWS V14.01,2013-11-12 21:00:00,
2013-11-12 16:01:00,44.8,29.6,30.15,South,180,6.0,15.0,55,0.00,,,0.00,VWS V14.01,2013-11-12 21:01:00,
2013-11-12 16:06:00,44.3,30.0,30.15,ESE,113,3.0,7.0,57,0.00,,,0.00,VWS V14.01,2013-11-12 21:06:00,
2013-11-12 16:11:00,44.1,30.3,30.15,ESE,111,3.0,12.0,58,0.00,,,0.00,VWS V14.01,2013-11-12 21:11:00,
2013-11-12 16:16:00,43.5,29.7,30.16,SE,135,2.0,12.0,58,0.00,,,0.00,VWS V14.01,2013-11-12 21:16:00,
2013-11-12 16:21:00,42.9,29.6,30.16,SE,124,1.0,12.0,59,0.00,,,0.00,VWS V14.01,2013-11-12 21:21:00,
2013-11-12 16:26:00,42.3,29.8,30.16,ESE,113,0.0,12.0,61,0.00,,,0.00,VWS V14.01,2013-11-12 21:26:00,
2013-11-12 16:30:00,38.0,31.4,30.22,SSE,167,0.0,3.0,77,0.00,,,0.00,VWS V14.01,2013-11-12 21:30:00,
2013-11-12 16:31:00,41.6,29.6,30.17,South,171,0.0,12.0,62,0.00,,,0.00,VWS V14.01,2013-11-12 21:31:00,
2013-11-12 16:36:00,41.1,29.9,30.17,East,101,0.0,0.0,64,0.00,,,0.00,VWS V14.01,2013-11-12 21:36:00,
2013-11-12 16:41:00,40.6,29.8,30.17,SE,131,0.0,0.0,65,0.00,,,0.00,VWS V14.01,2013-11-12 21:41:00,
2013-11-12 16:46:00,40.3,29.9,30.19,SE,138,0.0,0.0,66,0.00,,,0.00,VWS V14.01,2013-11-12 21:46:00,
2013-11-12 16:51:00,40.1,30.0,30.19,South,176,0.0,0.0,67,0.00,,,0.00,VWS V14.01,2013-11-12 21:51:00,
2013-11-12 16:56:00,39.6,29.6,30.19,East,101,0.0,0.0,67,0.00,,,0.00,VWS V14.01,2013-11-12 21:56:00,
2013-11-12 17:00:00,37.3,32.3,30.23,SSE,150,0.0,6.0,82,0.00,,,0.00,VWS V14.01,2013-11-12 22:00:00,
2013-11-12 17:01:00,39.5,30.2,30.20,ESE,120,0.0,0.0,69,0.00,,,0.00,VWS V14.01,2013-11-12 22:01:00,
2013-11-12 17:06:00,39.3,30.4,30.20,ESE,109,0.0,0.0,70,0.00,,,0.00,VWS V14.01,2013-11-12 22:06:00,
2013-11-12 17:11:00,38.9,30.3,30.20,ESE,115,0.0,0.0,71,0.00,,,0.00,VWS V14.01,2013-11-12 22:11:00,
2013-11-12 17:16:00,38.6,30.7,30.21,ESE,118,0.0,3.0,73,0.00,,,0.00,VWS V14.01,2013-11-12 22:16:00,
2013-11-12 17:21:00,38.3,31.1,30.21,SSW,192,0.0,3.0,75,0.00,,,0.00,VWS V14.01,2013-11-12 22:21:00,
2013-11-12 17:26:00,38.2,31.3,30.21,East,99,0.0,3.0,76,0.00,,,0.00,VWS V14.01,2013-11-12 22:26:00,
2013-11-12 17:30:00,38.0,31.4,30.22,South,169,0.0,3.0,77,0.00,,,0.00,VWS V14.01,2013-11-12 22:30:00,
2013-11-12 17:35:00,37.8,31.2,30.22,SSE,155,0.0,3.0,77,0.00,,,0.00,VWS V14.01,2013-11-12 22:35:00,
2013-11-12 17:40:00,37.8,31.6,30.22,ESE,118,0.0,3.0,78,0.00,,,0.00,VWS V14.01,2013-11-12 22:40:00,
2013-11-12 17:45:00,37.6,31.7,30.22,SE,138,0.0,6.0,79,0.00,,,0.00,VWS V14.01,2013-11-12 22:45:00,
2013-11-12 17:50:00,37.6,31.7,30.22,ESE,123,0.0,6.0,79,0.00,,,0.00,VWS V14.01,2013-11-12 22:50:00,
2013-11-12 17:55:00,37.5,31.9,30.22,SSE,159,0.0,6.0,80,0.00,,,0.00,VWS V14.01,2013-11-12 22:55:00,
2013-11-12 18:00:00,37.3,32.3,30.23,SSE,152,0.0,6.0,82,0.00,,,0.00,VWS V14.01,2013-11-12 23:00:00,
2013-11-12 18:05:00,37.2,32.2,30.23,South,178,0.0,0.0,82,0.00,,,0.00,VWS V14.01,2013-11-12 23:05:00,
2013-11-12 18:10:00,37.0,32.0,30.23,South,169,0.0,0.0,82,0.00,,,0.00,VWS V14.01,2013-11-12 23:10:00,
2013-11-12 18:15:00,36.9,32.2,30.24,SSE,159,0.0,1.0,83,0.00,,,0.00,VWS V14.01,2013-11-12 23:15:00,
2013-11-12 18:20:00,36.8,32.1,30.24,East,93,0.0,1.0,83,0.00,,,0.00,VWS V14.01,2013-11-12 23:20:00,
2013-11-12 18:25:00,36.6,31.9,30.24,SE,130,0.0,1.0,83,0.00,,,0.00,VWS V14.01,2013-11-12 23:25:00,
2013-11-12 18:30:00,36.5,31.8,30.24,SE,132,0.0,1.0,83,0.00,,,0.00,VWS V14.01,2013-11-12 23:30:00,
2013-11-12 18:35:00,36.3,31.9,30.24,South,175,0.0,0.0,84,0.01,,,0.01,VWS V14.01,2013-11-12 23:35:00,
2013-11-12 18:40:00,36.2,31.8,30.24,South,179,0.0,0.0,84,0.01,,,0.01,VWS V14.01,2013-11-12 23:40:00,
2013-11-12 18:45:00,36.0,31.9,30.25,East,93,0.0,0.0,85,0.01,,,0.01,VWS V14.01,2013-11-12 23:45:00,
2013-11-12 18:50:00,35.9,31.8,30.25,South,180,0.0,0.0,85,0.01,,,0.01,VWS V14.01,2013-11-12 23:50:00,
2013-11-12 18:55:00,35.9,32.1,30.25,South,177,0.0,0.0,86,0.01,,,0.01,VWS V14.01,2013-11-12 23:55:00,
2013-11-12 19:00:00,35.9,32.1,30.26,SSE,159,0.0,0.0,86,0.01,,,0.01,VWS V14.01,2013-11-13 00:00:00,
2013-11-12 19:05:00,35.9,32.1,30.26,SE,145,0.0,0.0,86,0.01,,,0.01,VWS V14.01,2013-11-13 00:05:00,
2013-11-12 19:11:00,35.9,32.1,30.26,ESE,103,0.0,0.0,86,0.01,,,0.01,VWS V14.01,2013-11-13 00:11:00,
2013-11-12 19:16:00,35.8,32.3,30.26,East,95,0.0,0.0,87,0.01,,,0.01,VWS V14.01,2013-11-13 00:16:00,
2013-11-12 19:21:00,35.8,32.3,30.26,East,95,0.0,0.0,87,0.01,,,0.01,VWS V14.01,2013-11-13 00:21:00,
2013-11-12 19:26:00,35.6,31.8,30.26,East,100,0.0,0.0,86,0.01,,,0.01,VWS V14.01,2013-11-13 00:26:00,
2013-11-12 19:30:00,36.0,28.2,30.28,SE,127,0.0,0.0,73,0.00,,,0.01,VWS V14.01,2013-11-13 00:30:00,
2013-11-12 19:31:00,35.5,31.5,30.26,East,97,0.0,0.0,85,0.01,,,0.01,VWS V14.01,2013-11-13 00:31:00,
2013-11-12 19:36:00,35.5,31.1,30.26,ESE,107,0.0,0.0,84,0.00,,,0.01,VWS V14.01,2013-11-13 00:36:00,
2013-11-12 19:41:00,35.6,31.2,30.26,ESE,107,0.0,0.0,84,0.00,,,0.01,VWS V14.01,2013-11-13 00:41:00,
2013-11-12 19:46:00,35.6,31.2,30.26,ESE,107,0.0,0.0,84,0.00,,,0.01,VWS V14.01,2013-11-13 00:46:00,
2013-11-12 19:51:00,35.6,31.0,30.26,ESE,107,0.0,0.0,83,0.00,,,0.01,VWS V14.01,2013-11-13 00:51:00,
2013-11-12 19:56:00,35.6,31.0,30.26,ESE,107,0.0,0.0,83,0.00,,,0.01,VWS V14.01,2013-11-13 00:56:00,
2013-11-12 20:00:00,37.2,23.8,30.29,SE,134,0.0,0.0,58,0.00,,,0.01,VWS V14.01,2013-11-13 01:00:00,
2013-11-12 20:01:00,35.8,31.1,30.27,ESE,107,0.0,0.0,83,0.00,,,0.01,VWS V14.01,2013-11-13 01:01:00,
2013-11-12 20:06:00,35.8,31.1,30.27,ESE,107,0.0,0.0,83,0.00,,,0.01,VWS V14.01,2013-11-13 01:06:00,
2013-11-12 20:11:00,35.8,30.9,30.27,ESE,107,0.0,0.0,82,0.00,,,0.01,VWS V14.01,2013-11-13 01:11:00,
2013-11-12 20:16:00,35.8,30.5,30.27,ESE,106,0.0,0.0,81,0.00,,,0.01,VWS V14.01,2013-11-13 01:16:00,
2013-11-12 20:21:00,35.9,30.0,30.27,SE,131,0.0,0.0,79,0.00,,,0.01,VWS V14.01,2013-11-13 01:21:00,
2013-11-12 20:26:00,36.0,29.2,30.27,SE,140,0.0,0.0,76,0.00,,,0.01,VWS V14.01,2013-11-13 01:26:00,
2013-11-12 20:30:00,37.9,20.9,30.30,South,189,0.0,4.0,50,0.00,,,0.01,VWS V14.01,2013-11-13 01:30:00,
2013-11-12 20:31:00,36.0,28.2,30.28,SE,140,0.0,0.0,73,0.00,,,0.01,VWS V14.01,2013-11-13 01:31:00,
2013-11-12 20:36:00,36.3,27.1,30.28,South,173,0.0,0.0,69,0.00,,,0.01,VWS V14.01,2013-11-13 01:36:00,
2013-11-12 20:41:00,36.6,26.7,30.28,East,81,0.0,0.0,67,0.00,,,0.01,VWS V14.01,2013-11-13 01:41:00,
2013-11-12 20:46:00,36.8,26.1,30.27,East,83,0.0,0.0,65,0.00,,,0.01,VWS V14.01,2013-11-13 01:46:00,
2013-11-12 20:51:00,36.8,25.0,30.27,ESE,123,0.0,0.0,62,0.00,,,0.01,VWS V14.01,2013-11-13 01:51:00,
2013-11-12 20:56:00,37.0,24.4,30.27,ENE,71,0.0,0.0,60,0.00,,,0.01,VWS V14.01,2013-11-13 01:56:00,
2013-11-12 21:01:00,37.2,23.8,30.29,SE,134,0.0,0.0,58,0.00,,,0.01,VWS V14.01,2013-11-13 02:01:00,
2013-11-12 21:06:00,37.3,22.6,30.29,East,84,0.0,0.0,55,0.00,,,0.01,VWS V14.01,2013-11-13 02:06:00,
2013-11-12 21:11:00,37.6,22.5,30.29,South,190,0.0,0.0,54,0.00,,,0.01,VWS V14.01,2013-11-13 02:11:00,
2013-11-12 21:16:00,37.6,22.0,30.29,SE,146,0.0,0.0,53,0.00,,,0.01,VWS V14.01,2013-11-13 02:16:00,
2013-11-12 21:21:00,37.8,21.8,30.29,SSE,157,0.0,0.0,52,0.00,,,0.01,VWS V14.01,2013-11-13 02:21:00,
2013-11-12 21:26:00,37.9,21.9,30.29,SSE,157,0.0,0.0,52,0.00,,,0.01,VWS V14.01,2013-11-13 02:26:00,
2013-11-12 21:30:00,38.2,18.8,30.32,East,92,0.0,7.0,45,0.00,,,0.01,VWS V14.01,2013-11-13 02:30:00,
2013-11-12 21:31:00,37.9,20.9,30.30,South,190,0.0,4.0,50,0.00,,,0.01,VWS V14.01,2013-11-13 02:31:00,
2013-11-12 21:36:00,38.0,21.0,30.30,East,88,0.0,7.0,50,0.00,,,0.01,VWS V14.01,2013-11-13 02:36:00,
2013-11-12 21:41:00,38.2,20.2,30.30,East,85,0.0,7.0,48,0.00,,,0.01,VWS V14.01,2013-11-13 02:41:00,
2013-11-12 21:46:00,38.2,20.7,30.31,East,89,0.0,7.0,49,0.00,,,0.01,VWS V14.01,2013-11-13 02:46:00,
2013-11-12 21:51:00,38.2,20.2,30.31,SE,139,0.0,7.0,48,0.00,,,0.01,VWS V14.01,2013-11-13 02:51:00,
2013-11-12 21:56:00,38.2,19.3,30.31,East,82,0.0,7.0,46,0.00,,,0.01,VWS V14.01,2013-11-13 02:56:00,
2013-11-12 22:00:00,37.6,17.7,30.33,ESE,105,0.0,0.0,44,0.00,,,0.01,VWS V14.01,2013-11-13 03:00:00,
2013-11-12 22:01:00,38.3,19.9,30.32,SSE,148,0.0,7.0,47,0.00,,,0.01,VWS V14.01,2013-11-13 03:01:00,
2013-11-12 22:06:00,38.3,19.4,30.32,ESE,118,0.0,0.0,46,0.00,,,0.01,VWS V14.01,2013-11-13 03:06:00,
2013-11-12 22:11:00,38.3,19.9,30.32,East,82,0.0,0.0,47,0.00,,,0.01,VWS V14.01,2013-11-13 03:11:00,
2013-11-12 22:16:00,38.3,18.8,30.32,ESE,117,0.0,0.0,45,0.00,,,0.01,VWS V14.01,2013-11-13 03:16:00,
2013-11-12 22:21:00,38.3,18.8,30.32,SE,146,0.0,1.0,45,0.00,,,0.01,VWS V14.01,2013-11-13 03:21:00,
2013-11-12 22:26:00,38.2,18.8,30.32,SE,142,1.0,3.0,45,0.00,,,0.01,VWS V14.01,2013-11-13 03:26:00,
2013-11-12 22:30:00,36.3,17.0,30.33,ESE,118,0.0,0.0,45,0.00,,,0.01,VWS V14.01,2013-11-13 03:30:00,
2013-11-12 22:31:00,38.2,18.8,30.32,East,90,0.0,7.0,45,0.00,,,0.01,VWS V14.01,2013-11-13 03:31:00,
2013-11-12 22:36:00,38.2,19.3,30.32,ESE,102,0.0,0.0,46,0.00,,,0.01,VWS V14.01,2013-11-13 03:36:00,
2013-11-12 22:41:00,38.0,18.0,30.32,SE,142,0.0,0.0,44,0.00,,,0.01,VWS V14.01,2013-11-13 03:41:00,
2013-11-12 22:46:00,38.0,18.6,30.32,SE,142,0.0,0.0,45,0.00,,,0.01,VWS V14.01,2013-11-13 03:46:00,
2013-11-12 22:51:00,37.9,18.0,30.32,ENE,69,0.0,0.0,44,0.00,,,0.01,VWS V14.01,2013-11-13 03:51:00,
2013-11-12 22:56:00,37.8,17.3,30.32,ESE,109,0.0,0.0,43,0.00,,,0.01,VWS V14.01,2013-11-13 03:56:00,
2013-11-12 23:00:00,35.3,15.6,30.35,SE,137,0.0,0.0,44,0.00,,,0.01,VWS V14.01,2013-11-13 04:00:00,
2013-11-12 23:01:00,37.6,17.7,30.33,ESE,105,0.0,0.0,44,0.00,,,0.01,VWS V14.01,2013-11-13 04:01:00,
2013-11-12 23:06:00,37.3,17.9,30.33,ESE,115,0.0,0.0,45,0.00,,,0.01,VWS V14.01,2013-11-13 04:06:00,
2013-11-12 23:11:00,37.2,17.8,30.33,ESE,108,0.0,0.0,45,0.00,,,0.01,VWS V14.01,2013-11-13 04:11:00,
2013-11-12 23:16:00,36.9,17.0,30.33,SE,128,0.0,0.0,44,0.00,,,0.01,VWS V14.01,2013-11-13 04:16:00,
2013-11-12 23:21:00,36.8,17.0,30.33,East,89,0.0,0.0,44,0.00,,,0.01,VWS V14.01,2013-11-13 04:21:00,
2013-11-12 23:26:00,36.6,16.8,30.33,ESE,119,0.0,0.0,44,0.00,,,0.01,VWS V14.01,2013-11-13 04:26:00,
2013-11-12 23:30:00,34.6,14.9,30.35,ENE,70,0.0,0.0,44,0.00,,,0.00,VWS V14.01,2013-11-13 04:30:00,
2013-11-12 23:31:00,36.3,17.0,30.33,ESE,118,0.0,0.0,45,0.00,,,0.01,VWS V14.01,2013-11-13 04:31:00,
2013-11-12 23:36:00,36.2,16.9,30.33,East,90,0.0,0.0,45,0.00,,,0.01,VWS V14.01,2013-11-13 04:36:00,
2013-11-12 23:41:00,36.0,16.7,30.33,East,97,0.0,0.0,45,0.00,,,0.01,VWS V14.01,2013-11-13 04:41:00,
2013-11-12 23:46:00,35.9,16.1,30.35,ENE,76,0.0,0.0,44,0.00,,,0.01,VWS V14.01,2013-11-13 04:46:00,
2013-11-12 23:51:00,35.8,15.5,30.35,ESE,103,0.0,0.0,43,0.00,,,0.01,VWS V14.01,2013-11-13 04:51:00,
2013-11-12 23:56:00,35.6,16.4,30.35,ESE,103,0.0,0.0,45,0.00,,,0.01,VWS V14.01,2013-11-13 04:56:00,